Miscellaneous Local Product
Issued by NWS Hastings, NE

Home | Current Version | Previous Version | Graphics & Text | Print | Product List | Glossary On
Versions: 1 2 3 4 5 6 7 8 9 10 11 12 13 14 15 16 17 18 19 20 21 22 23 24 25 26 27 28 29 30 31 32 33 34 35 36 37 38 39 40 41 42 43 44 45 46 47 48 49 50
000
AXUS43 KGID 180402
MISGRI

GID CWA HOURLY WEATHER ROUNDUP
NATIONAL WEATHER SERVICE HASTINGS NE
1100 PM CDT TUE OCT 17 2017

NOTE: "FAIR" INDICATES FEW OR NO CLOUDS BELOW 12,000 FEET WITH NO
SIGNIFICANT WEATHER AND/OR OBSTRUCTIONS TO VISIBILITY.

...SOUTH CENTRAL NEBRASKA...

CITY           SKY/WX    TMP DP  RH WIND       PRES   REMARKS
GRAND ISLAND   CLEAR     55  45  68 S9        29.97F
HASTINGS       CLEAR     59  43  55 S8        29.98F
KEARNEY        CLEAR     56  41  57 S9        29.97F
ORD            CLEAR     49  37  63 S9        29.92F
YORK           CLEAR     54  46  76 S8        29.98F
AURORA         CLEAR     55  43  62 S6        29.98S
LEXINGTON      CLEAR     55  38  52 SE7       29.97S
HOLDREGE       CLEAR     55  41  58 S8        29.97F
HEBRON         CLEAR     56  47  73 S8        30.00S

...NEBRASKA PANHANDLE...

CITY           SKY/WX    TMP DP  RH WIND       PRES   REMARKS
CHADRON        CLEAR     45  22  40 W8        29.88F
ALLIANCE       CLOUDY    44  23  43 CALM      29.95F
SCOTTSBLUFF    CLEAR     50  24  36 N7        29.97S
SIDNEY         CLEAR     41  25  53 W9        30.02S

...WESTERN AND NORTH CENTRAL NEBRASKA...

CITY           SKY/WX    TMP DP  RH WIND       PRES   REMARKS
VALENTINE      CLEAR     59  28  30 SW14      29.87F
AINSWORTH      CLEAR     47  34  60 S8        29.90S
ONEILL         CLEAR     56  41  56 S7        29.91F
BROKEN BOW     CLEAR     51  37  58 S6        29.94F
IMPERIAL       CLEAR     53  27  36 SW8       29.99S
NORTH PLATTE   CLEAR     62  34  35 S8        29.95S
MCCOOK         CLEAR     59  35  40 S9        29.97F

...EASTERN NEBRASKA...

CITY           SKY/WX    TMP DP  RH WIND       PRES   REMARKS
NORFOLK        CLEAR     59  45  59 S13       29.94F
SO SIOUX CITY  CLEAR     47  44  90 E6        29.96S
TEKAMAH        CLEAR     47  43  86 SE6       29.98S
COLUMBUS       CLEAR     55  45  68 SE5       29.97F
ALBION         PTCLDY    56  42  60 SE3       29.96S
OMAHA EPPLEY   CLEAR     55  46  71 SE7       30.00S
OFFUTT AFB     CLEAR     46  44  90 E5        29.99F
MILLARD        CLEAR     51  49  90 CALM      30.00S
LINCOLN        PTCLDY    55  46  71 S3        30.00F
NEBRASKA CITY  PTCLDY    55  48  78 S8        30.02R
BEATRICE       PTCLDY    58  48  70 S8        30.01S
FALLS CITY     CLEAR     57  47  69 S9        30.03F

...NORTHERN KANSAS...

CITY           SKY/WX    TMP DP  RH WIND       PRES   REMARKS
GOODLAND       CLEAR     55  30  38 S13       30.03S
HILL CITY      CLEAR     59  42  53 SW5       30.01F
NORTON         CLEAR     57  34  41 S10       29.98S
PHILLIPSBURG   CLEAR     52  39  62 S5        29.99F
SMITH CENTER   PTCLDY    50  43  76 SE6       30.01R
HAYS           CLEAR     58  42  55 S8        30.03R
RUSSELL        CLEAR     59  44  57 S16       30.01S
CONCORDIA      CLEAR     59  47  64 S17       30.01S
SALINA         CLEAR     61  47  59 S10       30.04S
TOPEKA         CLEAR     59  48  67 S8        30.07F



USA.gov is the U.S. government's official web portal to all federal, state and local government web resources and services.